Time,TemperatureF,DewpointF,PressureIn,WindDirection,WindDirectionDegrees,WindSpeedMPH,WindSpeedGustMPH,Humidity,HourlyPrecipIn,Conditions,Clouds,dailyrainin,SoftwareType,DateUTC
2013-10-08 00:00:00,59.8,59.2,30.02,North,0,0.0,0.0,98,0.00,RA,,0.00,WeatherDisplay:10.37,2013-10-08 04:00:00,
2013-10-08 00:01:00,59.8,59.2,30.02,North,0,0.0,0.0,98,0.00,RA,,0.00,WeatherDisplay:10.37,2013-10-08 04:01:00,
2013-10-08 00:06:00,59.9,59.3,30.02,North,0,0.0,0.0,98,0.00,RA,,0.00,WeatherDisplay:10.37,2013-10-08 04:06:00,
2013-10-08 00:11:00,60.3,59.7,30.03,North,0,0.0,0.0,98,0.00,CLR,,0.00,WeatherDisplay:10.37,2013-10-08 04:11:00,
2013-10-08 00:16:00,60.3,59.7,30.03,North,0,0.0,0.0,98,0.00,CLR,,0.00,WeatherDisplay:10.37,2013-10-08 04:16:00,
2013-10-08 00:21:00,60.0,59.7,30.03,North,0,0.0,0.0,99,0.00,CLR,,0.00,WeatherDisplay:10.37,2013-10-08 04:21:00,
2013-10-08 00:26:00,59.8,59.8,30.03,North,0,0.0,0.0,100,0.00,CLR,,0.00,WeatherDisplay:10.37,2013-10-08 04:26:00,
2013-10-08 00:31:00,59.8,59.5,30.02,North,0,0.0,0.0,99,0.00,CLR,,0.00,WeatherDisplay:10.37,2013-10-08 04:31:00,
2013-10-08 00:36:00,59.8,59.2,30.02,North,0,0.0,0.0,98,0.00,CLR,,0.00,WeatherDisplay:10.37,2013-10-08 04:36:00,
2013-10-08 00:41:00,59.6,59.0,30.01,North,0,0.0,0.0,98,0.00,CLR,,0.00,WeatherDisplay:10.37,2013-10-08 04:41:00,
2013-10-08 00:46:00,59.5,59.2,30.02,North,0,0.0,0.0,99,0.00,CLR,,0.00,WeatherDisplay:10.37,2013-10-08 04:46:00,
2013-10-08 00:51:00,59.3,59.3,30.02,North,0,0.0,0.0,100,0.00,CLR,,0.00,WeatherDisplay:10.37,2013-10-08 04:51:00,
2013-10-08 00:56:00,59.2,59.2,30.02,North,0,0.0,0.0,100,0.00,CLR,,0.00,WeatherDisplay:10.37,2013-10-08 04:56:00,
2013-10-08 01:01:00,59.2,59.2,30.02,North,0,0.0,0.0,100,0.00,CLR,,0.00,WeatherDisplay:10.37,2013-10-08 05:01:00,
2013-10-08 01:06:00,59.1,59.1,30.01,North,0,0.0,0.0,100,0.00,CLR,,0.00,WeatherDisplay:10.37,2013-10-08 05:06:00,
2013-10-08 01:11:00,59.0,58.7,30.02,North,0,0.0,0.0,99,0.00,CLR,,0.00,WeatherDisplay:10.37,2013-10-08 05:11:00,
2013-10-08 01:16:00,58.8,58.8,30.02,North,0,0.0,0.0,100,0.00,CLR,,0.00,WeatherDisplay:10.37,2013-10-08 05:16:00,
2013-10-08 01:21:00,58.8,58.8,30.02,North,0,0.0,0.0,100,0.00,CLR,,0.00,WeatherDisplay:10.37,2013-10-08 05:21:00,
2013-10-08 01:26:00,58.8,58.8,30.02,North,0,0.0,0.0,100,0.00,CLR,,0.00,WeatherDisplay:10.37,2013-10-08 05:26:00,
2013-10-08 01:31:00,58.7,58.7,30.02,North,0,0.0,0.0,100,0.00,CLR,,0.00,WeatherDisplay:10.37,2013-10-08 05:31:00,
2013-10-08 01:36:00,58.8,58.8,30.01,North,0,0.0,0.0,100,0.00,CLR,,0.00,WeatherDisplay:10.37,2013-10-08 05:36:00,
2013-10-08 01:41:00,58.7,58.7,30.02,North,0,0.0,0.0,100,0.00,CLR,,0.00,WeatherDisplay:10.37,2013-10-08 05:41:00,
2013-10-08 01:46:00,58.7,58.7,30.02,North,0,0.0,0.0,100,0.00,CLR,,0.00,WeatherDisplay:10.37,2013-10-08 05:46:00,
2013-10-08 01:51:00,58.4,58.4,30.03,North,0,0.0,0.0,100,0.00,CLR,,0.00,WeatherDisplay:10.37,2013-10-08 05:51:00,
2013-10-08 01:56:00,58.4,58.4,30.03,North,0,0.0,0.0,100,0.00,CLR,,0.00,WeatherDisplay:10.37,2013-10-08 05:56:00,
2013-10-08 02:01:00,58.3,58.3,30.02,North,0,0.0,0.0,100,0.00,CLR,,0.00,WeatherDisplay:10.37,2013-10-08 06:01:00,
2013-10-08 02:06:00,58.4,58.4,30.02,North,0,0.0,0.0,100,0.00,CLR,,0.00,WeatherDisplay:10.37,2013-10-08 06:06:00,
2013-10-08 02:11:00,58.4,58.4,30.03,North,0,0.0,0.0,100,0.00,CLR,,0.00,WeatherDisplay:10.37,2013-10-08 06:11:00,
2013-10-08 02:16:00,58.5,58.5,30.03,North,0,0.0,0.0,100,0.00,CLR,,0.00,WeatherDisplay:10.37,2013-10-08 06:16:00,
2013-10-08 02:22:00,58.6,58.6,30.03,North,0,0.0,0.0,100,0.00,CLR,,0.00,WeatherDisplay:10.37,2013-10-08 06:22:00,
2013-10-08 02:27:00,58.6,58.6,30.03,North,0,0.0,0.0,100,0.00,CLR,,0.00,WeatherDisplay:10.37,2013-10-08 06:27:00,
2013-10-08 02:32:00,58.7,58.7,30.03,North,0,0.0,0.0,100,0.00,CLR,,0.00,WeatherDisplay:10.37,2013-10-08 06:32:00,
2013-10-08 02:37:00,58.8,58.8,30.02,North,0,0.0,0.0,100,0.00,CLR,,0.00,WeatherDisplay:10.37,2013-10-08 06:37:00,
2013-10-08 02:42:00,59.1,59.1,30.02,North,0,0.0,0.0,100,0.00,CLR,,0.00,WeatherDisplay:10.37,2013-10-08 06:42:00,
2013-10-08 02:47:00,59.2,59.2,30.02,North,0,0.0,0.0,100,0.00,CLR,,0.00,WeatherDisplay:10.37,2013-10-08 06:47:00,
2013-10-08 02:52:00,59.4,59.1,30.02,North,0,0.0,0.0,99,0.00,CLR,,0.00,WeatherDisplay:10.37,2013-10-08 06:52:00,
2013-10-08 02:57:00,59.4,59.1,30.02,North,0,0.0,0.0,99,0.00,CLR,,0.00,WeatherDisplay:10.37,2013-10-08 06:57:00,
2013-10-08 03:02:00,59.6,59.3,30.01,North,0,0.0,0.0,99,0.00,CLR,,0.00,WeatherDisplay:10.37,2013-10-08 07:02:00,
2013-10-08 03:07:00,59.7,59.1,30.01,North,0,0.0,0.0,98,0.00,CLR,,0.00,WeatherDisplay:10.37,2013-10-08 07:07:00,
2013-10-08 03:12:00,59.7,59.1,30.01,North,0,0.0,0.0,98,0.00,CLR,,0.00,WeatherDisplay:10.37,2013-10-08 07:12:00,
2013-10-08 03:17:00,59.8,59.2,30.01,ENE,73,1.7,1.7,98,0.00,CLR,,0.00,WeatherDisplay:10.37,2013-10-08 07:17:00,
2013-10-08 03:22:00,59.9,59.0,30.01,WSW,246,1.2,1.2,97,0.00,CLR,,0.00,WeatherDisplay:10.37,2013-10-08 07:22:00,
2013-10-08 03:27:00,59.9,58.8,30.01,WSW,246,0.0,0.0,96,0.00,CLR,,0.00,WeatherDisplay:10.37,2013-10-08 07:27:00,
2013-10-08 03:32:00,60.1,58.7,30.01,WSW,246,0.0,0.0,95,0.00,CLR,,0.00,WeatherDisplay:10.37,2013-10-08 07:32:00,
2013-10-08 03:37:00,60.1,59.0,30.01,ESE,104,0.0,0.0,96,0.00,CLR,,0.00,WeatherDisplay:10.37,2013-10-08 07:37:00,
2013-10-08 03:42:00,60.0,58.6,30.01,East,90,3.5,3.5,95,0.00,CLR,,0.00,WeatherDisplay:10.37,2013-10-08 07:42:00,
2013-10-08 03:47:00,59.9,58.8,30.01,East,90,0.0,0.0,96,0.00,CLR,,0.00,WeatherDisplay:10.37,2013-10-08 07:47:00,
2013-10-08 03:52:00,59.8,58.7,30.01,East,90,0.0,0.0,96,0.00,CLR,,0.00,WeatherDisplay:10.37,2013-10-08 07:52:00,
2013-10-08 03:57:00,59.8,58.4,30.01,East,90,0.0,0.0,95,0.00,CLR,,0.00,WeatherDisplay:10.37,2013-10-08 07:57:00,
2013-10-08 04:02:00,59.8,58.4,30.01,East,90,0.0,0.0,95,0.00,CLR,,0.00,WeatherDisplay:10.37,2013-10-08 08:02:00,
2013-10-08 04:07:00,59.7,58.3,30.01,East,90,0.0,0.0,95,0.00,CLR,,0.00,WeatherDisplay:10.37,2013-10-08 08:07:00,
2013-10-08 04:12:00,59.6,58.5,30.01,East,90,0.0,0.0,96,0.00,CLR,,0.00,WeatherDisplay:10.37,2013-10-08 08:12:00,
2013-10-08 04:17:00,59.5,58.4,30.02,East,90,0.0,0.0,96,0.00,CLR,,0.00,WeatherDisplay:10.37,2013-10-08 08:17:00,
2013-10-08 04:22:00,59.5,58.4,30.02,East,90,0.0,0.0,96,0.00,CLR,,0.00,WeatherDisplay:10.37,2013-10-08 08:22:00,
2013-10-08 04:27:00,60.2,58.8,30.02,East,90,0.0,0.0,95,0.00,CLR,,0.00,WeatherDisplay:10.37,2013-10-08 08:27:00,
2013-10-08 04:32:00,60.8,58.2,30.02,East,90,0.0,0.0,91,0.00,CLR,,0.00,WeatherDisplay:10.37,2013-10-08 08:32:00,
2013-10-08 04:37:00,60.6,58.3,30.03,East,90,0.0,0.0,92,0.00,CLR,,0.00,WeatherDisplay:10.37,2013-10-08 08:37:00,
2013-10-08 04:42:00,60.2,57.9,30.03,East,90,0.0,0.0,92,0.00,CLR,,0.00,WeatherDisplay:10.37,2013-10-08 08:42:00,
2013-10-08 04:47:00,59.8,58.1,30.03,East,90,0.0,0.0,94,0.00,CLR,,0.00,WeatherDisplay:10.37,2013-10-08 08:47:00,
2013-10-08 04:52:00,59.4,57.7,30.03,East,90,0.0,0.0,94,0.00,CLR,,0.00,WeatherDisplay:10.37,2013-10-08 08:52:00,
2013-10-08 04:57:00,59.3,57.0,30.03,North,10,0.0,0.0,92,0.00,CLR,,0.00,WeatherDisplay:10.37,2013-10-08 08:57:00,
2013-10-08 05:02:00,59.2,56.9,30.03,WNW,285,2.3,2.3,92,0.00,CLR,,0.00,WeatherDisplay:10.37,2013-10-08 09:02:00,
2013-10-08 05:07:00,59.0,56.7,30.03,ENE,73,0.0,0.0,92,0.00,CLR,,0.00,WeatherDisplay:10.37,2013-10-08 09:07:00,
2013-10-08 05:12:00,58.9,56.6,30.04,NNW,340,3.5,3.5,92,0.00,CLR,,0.00,WeatherDisplay:10.37,2013-10-08 09:12:00,
2013-10-08 05:17:00,58.8,56.5,30.04,ENE,61,1.2,0.0,92,0.00,CLR,,0.00,WeatherDisplay:10.37,2013-10-08 09:17:00,
2013-10-08 05:22:00,58.8,56.8,30.04,NNW,346,0.0,0.0,93,0.00,CLR,,0.00,WeatherDisplay:10.37,2013-10-08 09:22:00,
2013-10-08 05:27:00,58.6,56.3,30.05,NE,34,2.3,2.3,92,0.00,CLR,,0.00,WeatherDisplay:10.37,2013-10-08 09:27:00,
2013-10-08 05:32:00,58.6,56.6,30.05,NNE,32,1.2,1.2,93,0.00,CLR,,0.00,WeatherDisplay:10.37,2013-10-08 09:32:00,
2013-10-08 05:37:00,58.6,56.6,30.06,NNE,32,0.0,0.0,93,0.00,CLR,,0.00,WeatherDisplay:10.37,2013-10-08 09:37:00,
2013-10-08 05:42:00,58.6,56.6,30.06,West,265,0.0,0.0,93,0.00,CLR,,0.00,WeatherDisplay:10.37,2013-10-08 09:42:00,
2013-10-08 05:47:00,58.7,56.7,30.06,ESE,117,3.0,3.0,93,0.00,CLR,,0.00,WeatherDisplay:10.37,2013-10-08 09:47:00,
2013-10-08 05:52:00,58.7,56.7,30.06,North,11,0.0,0.0,93,0.00,CLR,,0.00,WeatherDisplay:10.37,2013-10-08 09:52:00,
2013-10-08 05:57:00,58.8,56.8,30.06,North,11,0.0,0.0,93,0.00,CLR,,0.00,WeatherDisplay:10.37,2013-10-08 09:57:00,
2013-10-08 06:02:00,58.7,56.1,30.07,WSW,244,0.0,0.0,91,0.00,CLR,,0.00,WeatherDisplay:10.37,2013-10-08 10:02:00,
2013-10-08 06:07:00,58.8,56.5,30.07,NE,42,1.4,1.4,92,0.00,CLR,,0.00,WeatherDisplay:10.37,2013-10-08 10:07:00,
2013-10-08 06:12:00,58.9,56.6,30.08,North,11,0.0,0.0,92,0.00,CLR,,0.00,WeatherDisplay:10.37,2013-10-08 10:12:00,
2013-10-08 06:17:00,58.8,56.5,30.08,North,11,0.0,0.0,92,0.00,CLR,,0.00,WeatherDisplay:10.37,2013-10-08 10:17:00,
2013-10-08 06:22:00,58.8,56.5,30.08,SW,227,2.3,2.3,92,0.00,CLR,,0.00,WeatherDisplay:10.37,2013-10-08 10:22:00,
2013-10-08 06:27:00,58.9,56.6,30.08,NW,316,0.0,0.0,92,0.00,CLR,,0.00,WeatherDisplay:10.37,2013-10-08 10:27:00,
2013-10-08 06:32:00,58.9,56.6,30.08,ENE,72,1.4,1.4,92,0.00,CLR,,0.00,WeatherDisplay:10.37,2013-10-08 10:32:00,
2013-10-08 06:37:00,59.0,56.7,30.09,North,353,0.0,0.1,92,0.00,CLR,,0.00,WeatherDisplay:10.37,2013-10-08 10:37:00,
2013-10-08 06:42:00,59.0,56.7,30.09,North,353,0.0,0.0,92,0.00,CLR,,0.00,WeatherDisplay:10.37,2013-10-08 10:42:00,
2013-10-08 06:47:00,58.9,56.6,30.09,West,264,0.0,0.0,92,0.00,CLR,,0.00,WeatherDisplay:10.37,2013-10-08 10:47:00,
2013-10-08 06:52:00,59.0,56.7,30.09,West,264,0.0,0.0,92,0.00,CLR,,0.00,WeatherDisplay:10.37,2013-10-08 10:52:00,
2013-10-08 06:57:00,59.0,56.4,30.10,East,83,0.0,0.4,91,0.00,CLR,,0.00,WeatherDisplay:10.37,2013-10-08 10:57:00,
2013-10-08 07:02:00,58.9,56.3,30.10,WSW,254,3.0,3.0,91,0.00,CLR,,0.00,WeatherDisplay:10.37,2013-10-08 11:02:00,
2013-10-08 07:07:00,58.9,56.3,30.10,SE,126,0.0,0.0,91,0.00,CLR,,0.00,WeatherDisplay:10.37,2013-10-08 11:07:00,
2013-10-08 07:12:00,58.9,56.0,30.10,NNE,30,0.0,0.0,90,0.00,CLR,,0.00,WeatherDisplay:10.37,2013-10-08 11:12:00,
2013-10-08 07:17:00,58.8,55.6,30.11,NNE,14,0.0,0.0,89,0.00,CLR,,0.00,WeatherDisplay:10.37,2013-10-08 11:17:00,
2013-10-08 07:22:00,58.9,55.7,30.11,NNE,14,0.0,0.0,89,0.00,CLR,,0.00,WeatherDisplay:10.37,2013-10-08 11:22:00,
2013-10-08 07:27:00,59.0,55.4,30.11,SSE,164,2.1,2.1,88,0.00,CLR,,0.00,WeatherDisplay:10.37,2013-10-08 11:27:00,
2013-10-08 07:32:00,58.9,55.4,30.11,NE,42,2.3,0.0,88,0.00,CLR,,0.00,WeatherDisplay:10.37,2013-10-08 11:32:00,
2013-10-08 07:37:00,58.9,55.4,30.11,NNW,342,1.4,1.4,88,0.00,CLR,,0.00,WeatherDisplay:10.37,2013-10-08 11:37:00,
2013-10-08 07:42:00,58.9,55.0,30.12,NW,308,3.5,0.0,87,0.00,CLR,,0.00,WeatherDisplay:10.37,2013-10-08 11:42:00,
2013-10-08 07:48:00,58.9,55.0,30.12,NE,52,2.3,0.0,87,0.00,CLR,,0.00,WeatherDisplay:10.37,2013-10-08 11:48:00,
2013-10-08 07:52:00,58.8,54.9,30.12,NNW,329,0.0,0.0,87,0.00,CLR,,0.00,WeatherDisplay:10.37,2013-10-08 11:52:00,
2013-10-08 07:58:00,59.2,57.2,30.13,NE,45,3.0,3.0,93,0.00,CLR,,0.00,WeatherDisplay:10.37,2013-10-08 11:58:00,
2013-10-08 08:03:00,59.5,57.8,30.13,NW,304,2.3,0.0,94,0.00,CLR,,0.00,WeatherDisplay:10.37,2013-10-08 12:03:00,
2013-10-08 08:08:00,60.3,57.4,30.13,North,8,3.7,3.7,90,0.00,CLR,,0.00,WeatherDisplay:10.37,2013-10-08 12:08:00,
2013-10-08 08:13:00,60.5,57.6,30.13,WNW,299,1.2,1.2,90,0.00,CLR,,0.00,WeatherDisplay:10.37,2013-10-08 12:13:00,
2013-10-08 08:18:00,60.9,56.0,30.13,SW,223,2.3,2.3,84,0.00,CLR,,0.00,WeatherDisplay:10.37,2013-10-08 12:18:00,
2013-10-08 08:23:00,60.6,54.0,30.13,NNE,25,3.5,3.5,79,0.00,CLR,,0.00,WeatherDisplay:10.37,2013-10-08 12:23:00,
2013-10-08 08:28:00,60.0,53.8,30.13,NNE,16,0.0,1.9,80,0.00,CLR,,0.00,WeatherDisplay:10.37,2013-10-08 12:28:00,
2013-10-08 08:33:00,59.4,52.9,30.13,North,11,3.2,3.2,79,0.00,CLR,,0.00,WeatherDisplay:10.37,2013-10-08 12:33:00,
2013-10-08 08:38:00,59.3,52.1,30.13,East,86,5.8,5.8,77,0.00,CLR,,0.00,WeatherDisplay:10.37,2013-10-08 12:38:00,
2013-10-08 08:43:00,59.1,51.5,30.13,NW,318,4.6,4.6,76,0.00,CLR,,0.00,WeatherDisplay:10.37,2013-10-08 12:43:00,
2013-10-08 08:48:00,59.1,51.5,30.14,NNW,336,4.6,4.6,76,0.00,CLR,,0.00,WeatherDisplay:10.37,2013-10-08 12:48:00,
2013-10-08 08:53:00,59.0,51.1,30.14,SE,124,3.5,3.5,75,0.00,CLR,,0.00,WeatherDisplay:10.37,2013-10-08 12:53:00,
2013-10-08 08:58:00,59.1,51.2,30.14,North,8,6.9,6.9,75,0.00,CLR,,0.00,WeatherDisplay:10.37,2013-10-08 12:58:00,
2013-10-08 09:03:00,59.0,50.4,30.15,NW,315,5.8,5.8,73,0.00,CLR,,0.00,WeatherDisplay:10.37,2013-10-08 13:03:00,
2013-10-08 09:08:00,59.1,50.5,30.15,North,360,10.4,10.4,73,0.00,CLR,,0.00,WeatherDisplay:10.37,2013-10-08 13:08:00,
2013-10-08 09:13:00,59.1,50.8,30.16,NNW,347,2.3,2.3,74,0.00,CLR,,0.00,WeatherDisplay:10.37,2013-10-08 13:13:00,
2013-10-08 09:18:00,59.1,50.5,30.16,West,277,2.3,2.3,73,0.00,CLR,,0.00,WeatherDisplay:10.37,2013-10-08 13:18:00,
2013-10-08 09:23:00,59.2,50.5,30.16,NE,40,5.6,5.6,73,0.00,CLR,,0.00,WeatherDisplay:10.37,2013-10-08 13:23:00,
2013-10-08 09:28:00,59.3,50.3,30.16,NNE,20,5.8,5.8,72,0.00,CLR,,0.00,WeatherDisplay:10.37,2013-10-08 13:28:00,
2013-10-08 09:33:00,59.4,50.4,30.16,WNW,298,8.1,8.1,72,0.00,CLR,,0.00,WeatherDisplay:10.37,2013-10-08 13:33:00,
2013-10-08 09:38:00,59.4,50.7,30.16,North,360,5.8,5.8,73,0.00,CLR,,0.00,WeatherDisplay:10.37,2013-10-08 13:38:00,
2013-10-08 09:43:00,59.4,50.4,30.16,NW,319,1.2,0.0,72,0.00,CLR,,0.00,WeatherDisplay:10.37,2013-10-08 13:43:00,
2013-10-08 09:48:00,59.4,50.4,30.17,North,4,3.5,3.5,72,0.00,CLR,,0.00,WeatherDisplay:10.37,2013-10-08 13:48:00,
2013-10-08 09:53:00,59.7,50.7,30.17,WSW,246,2.3,2.3,72,0.00,CLR,,0.00,WeatherDisplay:10.37,2013-10-08 13:53:00,
2013-10-08 09:58:00,60.2,50.8,30.17,ENE,76,2.3,2.3,71,0.00,CLR,,0.00,WeatherDisplay:10.37,2013-10-08 13:58:00,
2013-10-08 10:03:00,60.7,50.5,30.17,ENE,73,5.8,5.8,69,0.00,CLR,,0.00,WeatherDisplay:10.37,2013-10-08 14:03:00,
2013-10-08 10:08:00,61.1,50.8,30.17,ESE,112,6.9,6.9,69,0.00,CLR,,0.00,WeatherDisplay:10.37,2013-10-08 14:08:00,
2013-10-08 10:13:00,61.3,50.2,30.17,NNE,27,3.5,3.5,67,0.00,CLR,,0.00,WeatherDisplay:10.37,2013-10-08 14:13:00,
2013-10-08 10:18:00,61.5,50.0,30.17,NNE,13,8.1,8.1,66,0.00,CLR,,0.00,WeatherDisplay:10.37,2013-10-08 14:18:00,
2013-10-08 10:23:00,61.6,50.1,30.17,NE,47,13.8,13.8,66,0.00,CLR,,0.00,WeatherDisplay:10.37,2013-10-08 14:23:00,
2013-10-08 10:28:00,61.6,49.7,30.17,East,99,1.2,0.0,65,0.00,CLR,,0.00,WeatherDisplay:10.37,2013-10-08 14:28:00,
2013-10-08 10:33:00,61.6,49.7,30.17,WNW,291,3.7,3.7,65,0.00,CLR,,0.00,WeatherDisplay:10.37,2013-10-08 14:33:00,
2013-10-08 10:38:00,61.8,49.5,30.17,East,88,6.9,6.9,64,0.00,CLR,,0.00,WeatherDisplay:10.37,2013-10-08 14:38:00,
2013-10-08 10:43:00,62.0,49.7,30.17,NNW,347,3.7,3.7,64,0.00,CLR,,0.00,WeatherDisplay:10.37,2013-10-08 14:43:00,
2013-10-08 10:48:00,62.2,50.3,30.17,ENE,69,6.9,6.9,65,0.00,CLR,,0.00,WeatherDisplay:10.37,2013-10-08 14:48:00,
2013-10-08 10:53:00,62.7,51.2,30.17,SSW,210,6.9,6.9,66,0.00,CLR,,0.00,WeatherDisplay:10.37,2013-10-08 14:53:00,
2013-10-08 10:58:00,62.9,50.5,30.17,NE,41,5.8,5.8,64,0.00,CLR,,0.00,WeatherDisplay:10.37,2013-10-08 14:58:00,
2013-10-08 11:03:00,63.0,50.6,30.17,WNW,288,4.6,4.6,64,0.00,CLR,,0.00,WeatherDisplay:10.37,2013-10-08 15:03:00,
2013-10-08 11:08:00,63.2,50.4,30.17,SW,233,3.5,3.5,63,0.00,CLR,,0.00,WeatherDisplay:10.37,2013-10-08 15:08:00,
2013-10-08 11:13:00,63.3,50.5,30.17,West,277,3.5,3.5,63,0.00,CLR,,0.00,WeatherDisplay:10.37,2013-10-08 15:13:00,
2013-10-08 11:18:00,63.5,50.2,30.18,East,97,4.6,4.6,62,0.00,CLR,,0.00,WeatherDisplay:10.37,2013-10-08 15:18:00,
2013-10-08 11:23:00,63.8,50.1,30.18,East,96,5.8,5.8,61,0.00,CLR,,0.00,WeatherDisplay:10.37,2013-10-08 15:23:00,
2013-10-08 11:28:00,64.1,49.9,30.18,East,89,4.6,4.6,60,0.00,CLR,,0.00,WeatherDisplay:10.37,2013-10-08 15:28:00,
2013-10-08 11:33:00,64.6,50.4,30.18,NE,52,4.6,4.6,60,0.00,CLR,,0.00,WeatherDisplay:10.37,2013-10-08 15:33:00,
2013-10-08 11:38:00,64.5,49.8,30.18,North,360,6.9,6.9,59,0.00,CLR,,0.00,WeatherDisplay:10.37,2013-10-08 15:38:00,
2013-10-08 11:43:00,64.6,50.4,30.17,ENE,76,2.3,2.3,60,0.00,CLR,,0.00,WeatherDisplay:10.37,2013-10-08 15:43:00,
2013-10-08 11:48:00,64.8,49.7,30.17,ENE,64,9.2,9.2,58,0.00,CLR,,0.00,WeatherDisplay:10.37,2013-10-08 15:48:00,
2013-10-08 11:53:00,64.9,49.8,30.17,West,264,5.8,5.8,58,0.00,CLR,,0.00,WeatherDisplay:10.37,2013-10-08 15:53:00,
2013-10-08 11:58:00,65.0,49.9,30.17,East,89,3.5,3.5,58,0.00,CLR,,0.00,WeatherDisplay:10.37,2013-10-08 15:58:00,
2013-10-08 12:03:00,64.8,49.7,30.17,WSW,254,4.6,4.6,58,0.00,CLR,,0.00,WeatherDisplay:10.37,2013-10-08 16:03:00,
2013-10-08 12:08:00,65.0,50.8,30.17,SSW,209,1.2,0.0,60,0.00,CLR,,0.00,WeatherDisplay:10.37,2013-10-08 16:08:00,
2013-10-08 12:13:00,65.4,51.1,30.17,SSW,199,4.6,4.6,60,0.00,CLR,,0.00,WeatherDisplay:10.37,2013-10-08 16:13:00,
2013-10-08 12:18:00,65.9,50.7,30.17,SSW,192,6.9,6.9,58,0.00,CLR,,0.00,WeatherDisplay:10.37,2013-10-08 16:18:00,
2013-10-08 12:23:00,66.4,50.7,30.17,NNE,17,3.5,3.5,57,0.00,CLR,,0.00,WeatherDisplay:10.37,2013-10-08 16:23:00,
2013-10-08 12:28:00,67.1,51.4,30.17,NE,37,5.8,5.8,57,0.00,CLR,,0.00,WeatherDisplay:10.37,2013-10-08 16:28:00,
2013-10-08 12:33:00,68.0,51.7,30.17,West,260,5.8,5.8,56,0.00,CLR,,0.00,WeatherDisplay:10.37,2013-10-08 16:33:00,
2013-10-08 12:38:00,68.4,50.6,30.17,ENE,65,3.5,3.5,53,0.00,CLR,,0.00,WeatherDisplay:10.37,2013-10-08 16:38:00,
2013-10-08 12:43:00,68.5,51.7,30.16,ENE,58,6.8,6.8,55,0.00,CLR,,0.00,WeatherDisplay:10.37,2013-10-08 16:43:00,
2013-10-08 12:48:00,68.9,51.1,30.16,ENE,58,4.6,4.6,53,0.00,CLR,,0.00,WeatherDisplay:10.37,2013-10-08 16:48:00,
2013-10-08 12:53:00,69.1,50.2,30.16,North,11,4.6,4.6,51,0.00,CLR,,0.00,WeatherDisplay:10.37,2013-10-08 16:53:00,
2013-10-08 12:58:00,69.5,51.6,30.16,East,97,6.9,6.9,53,0.00,CLR,,0.00,WeatherDisplay:10.37,2013-10-08 16:58:00,
2013-10-08 13:03:00,69.9,52.0,30.16,East,90,5.8,5.8,53,0.00,CLR,,0.00,WeatherDisplay:10.37,2013-10-08 17:03:00,
2013-10-08 13:08:00,70.1,51.7,30.16,ENE,61,5.8,5.8,52,0.00,CLR,,0.00,WeatherDisplay:10.37,2013-10-08 17:08:00,
2013-10-08 13:13:00,70.3,51.3,30.16,NNW,330,4.6,4.6,51,0.00,CLR,,0.00,WeatherDisplay:10.37,2013-10-08 17:13:00,
2013-10-08 13:18:00,70.6,52.1,30.15,East,80,6.9,6.9,52,0.00,CLR,,0.00,WeatherDisplay:10.37,2013-10-08 17:18:00,
2013-10-08 13:23:00,71.2,52.1,30.15,East,79,4.4,4.4,51,0.00,CLR,,0.00,WeatherDisplay:10.37,2013-10-08 17:23:00,
2013-10-08 13:28:00,71.5,52.4,30.14,West,277,5.8,5.8,51,0.00,CLR,,0.00,WeatherDisplay:10.37,2013-10-08 17:28:00,
2013-10-08 13:33:00,72.0,52.9,30.14,SE,141,5.8,5.8,51,0.00,CLR,,0.00,WeatherDisplay:10.37,2013-10-08 17:33:00,
2013-10-08 13:38:00,72.6,52.3,30.14,NNE,27,6.9,6.9,49,0.00,CLR,,0.00,WeatherDisplay:10.37,2013-10-08 17:38:00,
2013-10-08 13:43:00,72.5,52.8,30.14,North,357,1.7,1.7,50,0.00,CLR,,0.00,WeatherDisplay:10.37,2013-10-08 17:43:00,
2013-10-08 13:49:00,72.3,52.6,30.14,NNE,27,3.5,3.5,50,0.00,CLR,,0.00,WeatherDisplay:10.37,2013-10-08 17:49:00,
2013-10-08 13:54:00,72.4,52.7,30.14,ESE,110,8.1,8.1,50,0.00,CLR,,0.00,WeatherDisplay:10.37,2013-10-08 17:54:00,
2013-10-08 13:59:00,72.3,52.6,30.14,North,10,6.9,6.9,50,0.00,CLR,,0.00,WeatherDisplay:10.37,2013-10-08 17:59:00,
2013-10-08 14:04:00,71.9,51.1,30.14,North,360,6.9,6.9,48,0.00,CLR,,0.00,WeatherDisplay:10.37,2013-10-08 18:04:00,
2013-10-08 14:09:00,71.8,52.2,30.13,SE,127,9.2,9.2,50,0.00,CLR,,0.00,WeatherDisplay:10.37,2013-10-08 18:09:00,
2013-10-08 14:14:00,72.0,51.8,30.13,NW,318,4.6,4.6,49,0.00,CLR,,0.00,WeatherDisplay:10.37,2013-10-08 18:14:00,
2013-10-08 14:19:00,72.4,52.7,30.13,East,89,2.3,2.3,50,0.00,CLR,,0.00,WeatherDisplay:10.37,2013-10-08 18:19:00,
2013-10-08 14:24:00,72.9,52.1,30.13,NNE,23,4.6,4.6,48,0.00,CLR,,0.00,WeatherDisplay:10.37,2013-10-08 18:24:00,
2013-10-08 14:29:00,73.0,52.1,30.13,NE,56,6.9,6.9,48,0.00,CLR,,0.00,WeatherDisplay:10.37,2013-10-08 18:29:00,
2013-10-08 14:34:00,73.1,52.8,30.13,North,7,0.0,0.0,49,0.00,CLR,,0.00,WeatherDisplay:10.37,2013-10-08 18:34:00,
2013-10-08 14:39:00,73.3,53.0,30.13,ESE,120,9.2,9.2,49,0.00,CLR,,0.00,WeatherDisplay:10.37,2013-10-08 18:39:00,
2013-10-08 14:44:00,72.9,52.1,30.13,North,6,3.5,3.5,48,0.00,CLR,,0.00,WeatherDisplay:10.37,2013-10-08 18:44:00,
2013-10-08 14:49:00,72.9,52.6,30.13,SSW,196,3.5,3.5,49,0.00,CLR,,0.00,WeatherDisplay:10.37,2013-10-08 18:49:00,
2013-10-08 14:54:00,73.1,52.2,30.13,SE,127,5.8,5.8,48,0.00,CLR,,0.00,WeatherDisplay:10.37,2013-10-08 18:54:00,
2013-10-08 14:59:00,73.3,53.0,30.13,WSW,248,5.8,5.8,49,0.00,CLR,,0.00,WeatherDisplay:10.37,2013-10-08 18:59:00,
2013-10-08 15:04:00,73.3,53.0,30.13,NW,320,3.5,3.5,49,0.00,CLR,,0.00,WeatherDisplay:10.37,2013-10-08 19:04:00,
2013-10-08 15:09:00,73.9,52.4,30.13,NE,38,5.8,5.8,47,0.00,CLR,,0.00,WeatherDisplay:10.37,2013-10-08 19:09:00,
2013-10-08 15:14:00,73.5,52.6,30.13,WNW,285,3.5,3.5,48,0.00,CLR,,0.00,WeatherDisplay:10.37,2013-10-08 19:14:00,
2013-10-08 15:19:00,73.0,52.7,30.13,SW,223,3.5,3.5,49,0.00,CLR,,0.00,WeatherDisplay:10.37,2013-10-08 19:19:00,
2013-10-08 15:24:00,72.8,52.5,30.13,NE,49,2.3,2.3,49,0.00,CLR,,0.00,WeatherDisplay:10.37,2013-10-08 19:24:00,
2013-10-08 15:29:00,72.8,52.5,30.13,East,82,4.6,4.6,49,0.00,CLR,,0.00,WeatherDisplay:10.37,2013-10-08 19:29:00,
2013-10-08 15:34:00,72.9,53.2,30.13,NNE,27,5.8,5.8,50,0.00,CLR,,0.00,WeatherDisplay:10.37,2013-10-08 19:34:00,
2013-10-08 15:39:00,73.0,52.7,30.13,SE,134,3.5,3.5,49,0.00,CLR,,0.00,WeatherDisplay:10.37,2013-10-08 19:39:00,
2013-10-08 15:44:00,73.4,52.5,30.13,East,80,5.8,5.8,48,0.00,CLR,,0.00,WeatherDisplay:10.37,2013-10-08 19:44:00,
2013-10-08 15:49:00,73.1,52.8,30.14,North,10,5.7,5.7,49,0.00,CLR,,0.00,WeatherDisplay:10.37,2013-10-08 19:49:00,
2013-10-08 15:54:00,72.5,52.2,30.13,NNE,24,3.9,3.9,49,0.00,CLR,,0.00,WeatherDisplay:10.37,2013-10-08 19:54:00,
2013-10-08 15:59:00,72.1,52.4,30.13,North,7,5.8,5.8,50,0.00,CLR,,0.00,WeatherDisplay:10.37,2013-10-08 19:59:00,
2013-10-08 16:04:00,71.9,52.2,30.14,NW,304,4.6,4.6,50,0.00,CLR,,0.00,WeatherDisplay:10.37,2013-10-08 20:04:00,
2013-10-08 16:09:00,71.9,52.2,30.14,NNE,14,3.5,3.5,50,0.00,CLR,,0.00,WeatherDisplay:10.37,2013-10-08 20:09:00,
2013-10-08 16:14:00,72.9,53.2,30.14,North,353,1.2,1.2,50,0.00,CLR,,0.00,WeatherDisplay:10.37,2013-10-08 20:14:00,
2013-10-08 16:19:00,73.7,53.3,30.14,ENE,65,3.9,3.9,49,0.00,CLR,,0.00,WeatherDisplay:10.37,2013-10-08 20:19:00,
2013-10-08 16:24:00,73.3,53.0,30.14,ENE,72,5.8,5.8,49,0.00,CLR,,0.00,WeatherDisplay:10.37,2013-10-08 20:24:00,
2013-10-08 16:29:00,72.8,53.1,30.14,NNE,20,1.2,1.2,50,0.00,CLR,,0.00,WeatherDisplay:10.37,2013-10-08 20:29:00,
2013-10-08 16:34:00,72.5,52.8,30.14,WNW,288,4.6,4.6,50,0.00,CLR,,0.00,WeatherDisplay:10.37,2013-10-08 20:34:00,
2013-10-08 16:39:00,72.4,53.2,30.14,NNE,17,0.0,0.0,51,0.00,CLR,,0.00,WeatherDisplay:10.37,2013-10-08 20:39:00,
2013-10-08 16:44:00,73.1,53.9,30.14,NNE,17,0.0,0.0,51,0.00,CLR,,0.00,WeatherDisplay:10.37,2013-10-08 20:44:00,
2013-10-08 16:49:00,73.2,54.0,30.14,NNE,23,2.3,2.3,51,0.00,CLR,,0.00,WeatherDisplay:10.37,2013-10-08 20:49:00,
2013-10-08 16:54:00,72.7,53.5,30.14,NW,312,4.6,4.6,51,0.00,CLR,,0.00,WeatherDisplay:10.37,2013-10-08 20:54:00,
2013-10-08 16:59:00,72.3,53.7,30.14,NNE,27,2.8,2.8,52,0.00,CLR,,0.00,WeatherDisplay:10.37,2013-10-08 20:59:00,
2013-10-08 17:04:00,72.1,53.5,30.14,NW,311,5.8,5.8,52,0.00,CLR,,0.00,WeatherDisplay:10.37,2013-10-08 21:04:00,
2013-10-08 17:09:00,73.0,53.3,30.14,NNE,24,3.5,3.5,50,0.00,CLR,,0.00,WeatherDisplay:10.37,2013-10-08 21:09:00,
2013-10-08 17:14:00,73.5,53.2,30.14,ESE,119,4.6,4.6,49,0.00,CLR,,0.00,WeatherDisplay:10.37,2013-10-08 21:14:00,
2013-10-08 17:19:00,73.2,53.4,30.14,NW,315,1.2,1.4,50,0.00,CLR,,0.00,WeatherDisplay:10.37,2013-10-08 21:19:00,
2013-10-08 17:24:00,72.2,53.6,30.14,WSW,258,3.5,3.5,52,0.00,CLR,,0.00,WeatherDisplay:10.37,2013-10-08 21:24:00,
2013-10-08 17:29:00,71.9,53.8,30.14,East,100,3.5,3.5,53,0.00,CLR,,0.00,WeatherDisplay:10.37,2013-10-08 21:29:00,
2013-10-08 17:34:00,72.5,52.8,30.14,ENE,71,5.8,5.8,50,0.00,CLR,,0.00,WeatherDisplay:10.37,2013-10-08 21:34:00,
2013-10-08 17:39:00,72.0,53.4,30.14,ESE,107,0.0,0.0,52,0.00,CLR,,0.00,WeatherDisplay:10.37,2013-10-08 21:39:00,
2013-10-08 17:44:00,71.3,53.8,30.15,ESE,107,0.0,0.0,54,0.00,CLR,,0.00,WeatherDisplay:10.37,2013-10-08 21:44:00,
2013-10-08 17:49:00,71.4,52.9,30.15,ESE,106,4.6,4.6,52,0.00,CLR,,0.00,WeatherDisplay:10.37,2013-10-08 21:49:00,
2013-10-08 17:54:00,71.4,52.9,30.15,NE,40,0.0,0.0,52,0.00,CLR,,0.00,WeatherDisplay:10.37,2013-10-08 21:54:00,
2013-10-08 17:59:00,70.8,52.3,30.15,ESE,103,2.3,2.3,52,0.00,CLR,,0.00,WeatherDisplay:10.37,2013-10-08 21:59:00,
2013-10-08 18:04:00,70.3,52.4,30.15,ESE,107,0.0,0.0,53,0.00,CLR,,0.00,WeatherDisplay:10.37,2013-10-08 22:04:00,
2013-10-08 18:09:00,70.9,52.4,30.15,WNW,288,0.0,0.0,52,0.00,CLR,,0.00,WeatherDisplay:10.37,2013-10-08 22:09:00,
2013-10-08 18:14:00,70.7,52.2,30.15,NNE,24,0.0,0.0,52,0.00,CLR,,0.00,WeatherDisplay:10.37,2013-10-08 22:14:00,
2013-10-08 18:19:00,70.2,52.8,30.15,NNE,24,0.0,0.0,54,0.00,CLR,,0.00,WeatherDisplay:10.37,2013-10-08 22:19:00,
2013-10-08 18:24:00,69.9,52.5,30.15,WNW,291,2.3,0.0,54,0.00,CLR,,0.00,WeatherDisplay:10.37,2013-10-08 22:24:00,
2013-10-08 18:29:00,70.5,53.1,30.15,WNW,291,0.0,0.0,54,0.00,CLR,,0.00,WeatherDisplay:10.37,2013-10-08 22:29:00,
2013-10-08 18:34:00,70.3,52.9,30.16,NE,45,0.0,0.0,54,0.00,CLR,,0.00,WeatherDisplay:10.37,2013-10-08 22:34:00,
2013-10-08 18:39:00,69.5,52.6,30.16,NNE,20,0.0,0.0,55,0.00,CLR,,0.00,WeatherDisplay:10.37,2013-10-08 22:39:00,
2013-10-08 18:44:00,69.5,53.1,30.16,NNE,25,0.0,0.0,56,0.00,CLR,,0.00,WeatherDisplay:10.37,2013-10-08 22:44:00,
2013-10-08 18:49:00,69.9,53.0,30.16,NNE,25,0.0,0.0,55,0.00,CLR,,0.00,WeatherDisplay:10.37,2013-10-08 22:49:00,
2013-10-08 18:54:00,69.5,53.1,30.16,NNE,25,0.0,0.0,56,0.00,CLR,,0.00,WeatherDisplay:10.37,2013-10-08 22:54:00,
2013-10-08 18:59:00,69.2,52.8,30.16,NNE,25,0.0,0.0,56,0.00,CLR,,0.00,WeatherDisplay:10.37,2013-10-08 22:59:00,
2013-10-08 19:04:00,69.6,52.7,30.16,NNE,25,0.0,0.0,55,0.00,CLR,,0.00,WeatherDisplay:10.37,2013-10-08 23:04:00,
2013-10-08 19:09:00,69.8,52.9,30.16,NE,45,1.2,1.2,55,0.00,CLR,,0.00,WeatherDisplay:10.37,2013-10-08 23:09:00,
2013-10-08 19:14:00,69.2,53.3,30.16,NE,45,0.0,0.0,57,0.00,CLR,,0.00,WeatherDisplay:10.37,2013-10-08 23:14:00,
2013-10-08 19:20:00,68.6,53.2,30.16,ENE,61,0.0,0.0,58,0.00,CLR,,0.00,WeatherDisplay:10.37,2013-10-08 23:20:00,
2013-10-08 19:25:00,69.2,53.3,30.17,ENE,61,0.0,0.0,57,0.00,CLR,,0.00,WeatherDisplay:10.37,2013-10-08 23:25:00,
2013-10-08 19:30:00,69.3,53.4,30.17,ENE,61,0.0,0.0,57,0.00,CLR,,0.00,WeatherDisplay:10.37,2013-10-08 23:30:00,
2013-10-08 19:35:00,68.8,53.4,30.17,ENE,61,0.0,0.0,58,0.00,CLR,,0.00,WeatherDisplay:10.37,2013-10-08 23:35:00,
2013-10-08 19:40:00,68.2,53.3,30.17,ENE,61,0.0,0.0,59,0.00,CLR,,0.00,WeatherDisplay:10.37,2013-10-08 23:40:00,
2013-10-08 19:45:00,68.4,54.0,30.17,ENE,61,0.0,0.0,60,0.00,CLR,,0.00,WeatherDisplay:10.37,2013-10-08 23:45:00,
2013-10-08 19:50:00,68.5,53.1,30.17,North,10,4.6,4.6,58,0.00,CLR,,0.00,WeatherDisplay:10.37,2013-10-08 23:50:00,
2013-10-08 19:55:00,68.1,53.7,30.17,North,10,0.0,0.0,60,0.00,CLR,,0.00,WeatherDisplay:10.37,2013-10-08 23:55:00,
2013-10-08 20:00:00,67.8,53.9,30.17,NNE,24,0.0,0.0,61,0.00,CLR,,0.00,WeatherDisplay:10.37,2013-10-09 00:00:00,
2013-10-08 20:05:00,68.2,55.1,30.18,NNE,24,0.0,0.0,63,0.00,CLR,,0.00,WeatherDisplay:10.37,2013-10-09 00:05:00,
2013-10-08 20:10:00,68.6,56.8,30.18,NNE,24,0.0,0.0,66,0.00,CLR,,0.00,WeatherDisplay:10.37,2013-10-09 00:10:00,
2013-10-08 20:15:00,69.2,57.4,30.18,NNE,24,0.0,0.0,66,0.00,CLR,,0.00,WeatherDisplay:10.37,2013-10-09 00:15:00,
2013-10-08 20:20:00,69.0,56.3,30.18,NNE,24,0.0,0.0,64,0.00,CLR,,0.00,WeatherDisplay:10.37,2013-10-09 00:20:00,
2013-10-08 20:25:00,69.1,54.6,30.18,NNE,24,1.2,1.2,60,0.00,CLR,,0.00,WeatherDisplay:10.37,2013-10-09 00:25:00,
2013-10-08 20:30:00,69.1,55.1,30.19,NE,44,1.2,1.2,61,0.00,CLR,,0.00,WeatherDisplay:10.37,2013-10-09 00:30:00,
2013-10-08 20:35:00,68.7,54.7,30.19,SW,230,3.5,3.5,61,0.00,CLR,,0.00,WeatherDisplay:10.37,2013-10-09 00:35:00,
2013-10-08 20:40:00,68.2,54.7,30.19,SW,230,0.0,0.0,62,0.00,CLR,,0.00,WeatherDisplay:10.37,2013-10-09 00:40:00,
2013-10-08 20:45:00,68.0,53.1,30.19,NNE,27,0.0,0.0,59,0.00,CLR,,0.00,WeatherDisplay:10.37,2013-10-09 00:45:00,
2013-10-08 20:50:00,68.4,52.6,30.19,NE,41,1.2,1.2,57,0.00,CLR,,0.00,WeatherDisplay:10.37,2013-10-09 00:50:00,
2013-10-08 20:55:00,67.9,52.6,30.20,North,11,2.3,2.3,58,0.00,CLR,,0.00,WeatherDisplay:10.37,2013-10-09 00:55:00,
2013-10-08 21:00:00,67.3,52.0,30.20,NE,37,3.5,3.5,58,0.00,CLR,,0.00,WeatherDisplay:10.37,2013-10-09 01:00:00,
2013-10-08 21:05:00,66.8,51.5,30.20,North,11,4.6,4.6,58,0.00,CLR,,0.00,WeatherDisplay:10.37,2013-10-09 01:05:00,
2013-10-08 21:10:00,67.3,51.1,30.20,ENE,78,0.0,0.0,56,0.00,CLR,,0.00,WeatherDisplay:10.37,2013-10-09 01:10:00,
2013-10-08 21:15:00,67.4,51.2,30.20,East,80,2.3,2.3,56,0.00,CLR,,0.00,WeatherDisplay:10.37,2013-10-09 01:15:00,
2013-10-08 21:20:00,67.0,50.8,30.20,NNE,21,0.0,0.0,56,0.00,CLR,,0.00,WeatherDisplay:10.37,2013-10-09 01:20:00,
2013-10-08 21:25:00,66.6,50.9,30.21,NNE,21,0.0,0.0,57,0.00,CLR,,0.00,WeatherDisplay:10.37,2013-10-09 01:25:00,
2013-10-08 21:30:00,66.3,51.1,30.21,SSE,160,0.0,0.0,58,0.00,CLR,,0.00,WeatherDisplay:10.37,2013-10-09 01:30:00,
2013-10-08 21:35:00,67.1,50.4,30.21,East,83,5.8,5.8,55,0.00,CLR,,0.00,WeatherDisplay:10.37,2013-10-09 01:35:00,
2013-10-08 21:40:00,66.9,50.7,30.21,ESE,123,3.5,3.5,56,0.00,CLR,,0.00,WeatherDisplay:10.37,2013-10-09 01:40:00,
2013-10-08 21:45:00,66.4,50.2,30.21,ESE,123,0.0,0.0,56,0.00,CLR,,0.00,WeatherDisplay:10.37,2013-10-09 01:45:00,
2013-10-08 21:50:00,66.0,50.3,30.22,North,3,2.3,2.3,57,0.00,CLR,,0.00,WeatherDisplay:10.37,2013-10-09 01:50:00,
2013-10-08 21:55:00,65.7,50.0,30.22,WNW,291,2.3,2.3,57,0.00,CLR,,0.00,WeatherDisplay:10.37,2013-10-09 01:55:00,
2013-10-08 22:00:00,66.2,49.6,30.22,North,7,5.8,5.8,55,0.00,CLR,,0.00,WeatherDisplay:10.37,2013-10-09 02:00:00,
2013-10-08 22:05:00,66.1,49.9,30.22,SE,133,1.3,1.3,56,0.00,CLR,,0.00,WeatherDisplay:10.37,2013-10-09 02:05:00,
2013-10-08 22:10:00,65.6,49.5,30.22,East,86,0.0,0.0,56,0.00,CLR,,0.00,WeatherDisplay:10.37,2013-10-09 02:10:00,
2013-10-08 22:15:00,65.2,49.6,30.22,East,86,0.0,0.0,57,0.00,CLR,,0.00,WeatherDisplay:10.37,2013-10-09 02:15:00,
2013-10-08 22:20:00,65.4,49.3,30.22,NNE,32,3.5,3.5,56,0.00,CLR,,0.00,WeatherDisplay:10.37,2013-10-09 02:20:00,
2013-10-08 22:25:00,66.0,49.4,30.22,East,96,0.0,0.0,55,0.00,CLR,,0.00,WeatherDisplay:10.37,2013-10-09 02:25:00,
2013-10-08 22:30:00,66.1,49.0,30.22,NE,41,2.3,2.3,54,0.00,CLR,,0.00,WeatherDisplay:10.37,2013-10-09 02:30:00,
2013-10-08 22:35:00,65.6,49.0,30.22,NE,48,0.0,0.0,55,0.00,CLR,,0.00,WeatherDisplay:10.37,2013-10-09 02:35:00,
2013-10-08 22:40:00,65.0,48.4,30.22,North,353,6.9,6.9,55,0.00,CLR,,0.00,WeatherDisplay:10.37,2013-10-09 02:40:00,
2013-10-08 22:45:00,65.4,48.3,30.22,WSW,246,4.6,4.6,54,0.00,CLR,,0.00,WeatherDisplay:10.37,2013-10-09 02:45:00,
2013-10-08 22:50:00,65.8,48.2,30.22,East,88,1.2,0.0,53,0.00,CLR,,0.00,WeatherDisplay:10.37,2013-10-09 02:50:00,
2013-10-08 22:55:00,65.2,48.1,30.22,WNW,285,5.8,5.8,54,0.00,CLR,,0.00,WeatherDisplay:10.37,2013-10-09 02:55:00,
2013-10-08 23:00:00,64.8,48.7,30.22,East,97,2.3,2.3,56,0.00,CLR,,0.00,WeatherDisplay:10.37,2013-10-09 03:00:00,
2013-10-08 23:05:00,65.3,48.7,30.22,North,359,1.2,0.0,55,0.00,CLR,,0.00,WeatherDisplay:10.37,2013-10-09 03:05:00,
2013-10-08 23:10:00,65.6,48.5,30.22,NW,316,4.6,4.6,54,0.00,CLR,,0.00,WeatherDisplay:10.37,2013-10-09 03:10:00,
2013-10-08 23:15:00,65.1,49.0,30.21,North,353,6.9,6.9,56,0.00,CLR,,0.00,WeatherDisplay:10.37,2013-10-09 03:15:00,
2013-10-08 23:20:00,64.6,49.0,30.21,NE,41,3.5,3.5,57,0.00,CLR,,0.00,WeatherDisplay:10.37,2013-10-09 03:20:00,
2013-10-08 23:25:00,64.4,48.8,30.21,SE,140,0.0,0.0,57,0.00,CLR,,0.00,WeatherDisplay:10.37,2013-10-09 03:25:00,
2013-10-08 23:30:00,64.9,48.8,30.21,NNW,343,3.5,3.5,56,0.00,CLR,,0.00,WeatherDisplay:10.37,2013-10-09 03:30:00,
2013-10-08 23:35:00,64.5,48.4,30.21,SW,230,3.5,3.5,56,0.00,CLR,,0.00,WeatherDisplay:10.37,2013-10-09 03:35:00,
2013-10-08 23:40:00,64.1,49.0,30.21,SW,230,0.0,0.0,58,0.00,CLR,,0.00,WeatherDisplay:10.37,2013-10-09 03:40:00,
2013-10-08 23:46:00,63.6,48.5,30.21,NNE,21,3.5,0.0,58,0.00,CLR,,0.00,WeatherDisplay:10.37,2013-10-09 03:46:00,
2013-10-08 23:51:00,63.7,49.1,30.21,South,172,3.7,3.7,59,0.00,CLR,,0.00,WeatherDisplay:10.37,2013-10-09 03:51:00,
2013-10-08 23:56:00,63.9,48.4,30.20,NE,38,2.3,2.3,57,0.00,CLR,,0.00,WeatherDisplay:10.37,2013-10-09 03:56:00,